• In India
  • List of Countries
  • For 7 days
  • Water Temperature
  • Satellite Maps
  • Weather Map
  • Weather Widgets
  • user-avatar
    Login

    Hourly Weather Zaluzhne

    Today, 13 November, Tuesday

    Time Temperature Precipitation Wind Pressure Humidity
    00:00 +1°C° 0 mm 5 mps 750 mmHg 69%
    01:00 0°C° 0 mm 5 mps 750 mmHg 67%
    02:00 0°C° 0 mm 5 mps 751 mmHg 65%
    03:00 0°C° 0 mm 5 mps 750 mmHg 64%
    04:00 0°C° 0 mm 5 mps 750 mmHg 63%
    05:00 -1°C° 0 mm 5 mps 750 mmHg 62%
    06:00 -1°C° 0 mm 5 mps 750 mmHg 61%
    07:00 -2°C° 0 mm 5 mps 750 mmHg 61%
    08:00 -2°C° 0 mm 5 mps 751 mmHg 60%
    09:00 -1°C° 0 mm 5 mps 751 mmHg 57%
    10:00 -1°C° 0 mm 5 mps 750 mmHg 55%
    11:00 0°C° 0 mm 5 mps 750 mmHg 52%
    12:00 +1°C° 0 mm 5 mps 750 mmHg 50%
    13:00 +1°C° 0 mm 5 mps 750 mmHg 49%
    14:00 +2°C° 0 mm 5 mps 749 mmHg 47%
    15:00 +1°C° 0 mm 5 mps 749 mmHg 49%
    16:00 +1°C° 0 mm 5 mps 749 mmHg 50%
    17:00 0°C° 0 mm 4 mps 749 mmHg 52%
    18:00 -1°C° 0 mm 5 mps 748 mmHg 52%
    19:00 -1°C° 0 mm 5 mps 748 mmHg 53%
    20:00 -1°C° 0 mm 5 mps 748 mmHg 54%
    21:00 -2°C° 0 mm 5 mps 748 mmHg 54%
    22:00 -2°C° 0 mm 5 mps 747 mmHg 55%
    23:00 -2°C° 0 mm 5 mps 747 mmHg 56%

    Tomorrow, 14 November, Wednesday

    Time Temperature Precipitation Wind Pressure Humidity
    00:00 -2°C° 0 mm 5 mps 747 mmHg 57%
    01:00 -2°C° 0 mm 5 mps 746 mmHg 58%
    02:00 -2°C° 0 mm 5 mps 746 mmHg 58%
    03:00 -2°C° 0.1 mm 5 mps 745 mmHg 61%
    04:00 -2°C° 0.1 mm 5 mps 745 mmHg 64%
    05:00 -2°C° 0.1 mm 5 mps 744 mmHg 67%
    06:00 -2°C° 1.1 mm 5 mps 744 mmHg 74%
    07:00 -2°C° 1.1 mm 5 mps 744 mmHg 82%
    08:00 -2°C° 1.1 mm 5 mps 744 mmHg 90%
    09:00 -2°C° 1.1 mm 4 mps 744 mmHg 91%
    10:00 -1°C° 1.1 mm 4 mps 744 mmHg 92%
    11:00 -1°C° 1.1 mm 4 mps 744 mmHg 93%
    12:00 +1°C° 0.1 mm 3 mps 743 mmHg 92%
    13:00 +2°C° 0.1 mm 3 mps 743 mmHg 91%
    14:00 +3°C° 0.1 mm 3 mps 743 mmHg 91%
    15:00 +4°C° 0.1 mm 2 mps 743 mmHg 92%
    16:00 +4°C° 0.1 mm 2 mps 743 mmHg 93%
    17:00 +4°C° 0.1 mm 2 mps 743 mmHg 94%
    18:00 +4°C° 0 mm 2 mps 743 mmHg 94%
    19:00 +4°C° 0 mm 2 mps 743 mmHg 94%
    20:00 +4°C° 0 mm 2 mps 743 mmHg 94%
    21:00 +4°C° 0 mm 2 mps 743 mmHg 94%
    22:00 +4°C° 0 mm 2 mps 743 mmHg 95%
    23:00 +4°C° 0 mm 2 mps 743 mmHg 95%

    Day after tomorrow, 15 November, Thursday

    Time Temperature Precipitation Wind Pressure Humidity
    00:00 +4°C° 0.2 mm 2 mps 743 mmHg 96%
    01:00 +4°C° 0.2 mm 2 mps 743 mmHg 96%
    02:00 +4°C° 0.2 mm 2 mps 743 mmHg 97%
    03:00 +4°C° 0.2 mm 2 mps 743 mmHg 97%
    04:00 +4°C° 0.2 mm 2 mps 743 mmHg 97%
    05:00 +4°C° 0.2 mm 2 mps 743 mmHg 97%
    06:00 +4°C° 0.2 mm 2 mps 743 mmHg 97%
    07:00 +4°C° 0.2 mm 2 mps 743 mmHg 97%
    08:00 +4°C° 0.2 mm 2 mps 743 mmHg 97%
    09:00 +4°C° 0.1 mm 2 mps 744 mmHg 95%
    10:00 +5°C° 0.1 mm 2 mps 744 mmHg 94%
    11:00 +4°C° 0.1 mm 3 mps 745 mmHg 92%
    12:00 +4°C° 0 mm 3 mps 745 mmHg 90%
    13:00 +4°C° 0 mm 3 mps 745 mmHg 88%
    14:00 +4°C° 0 mm 3 mps 745 mmHg 86%
    15:00 +3°C° 0 mm 3 mps 746 mmHg 86%
    16:00 +3°C° 0 mm 3 mps 746 mmHg 86%
    17:00 +1°C° 0 mm 4 mps 747 mmHg 87%
    18:00 +1°C° 0 mm 4 mps 747 mmHg 86%
    19:00 +1°C° 0 mm 4 mps 748 mmHg 85%
    20:00 0°C° 0 mm 4 mps 748 mmHg 85%
    21:00 0°C° 0 mm 4 mps 748 mmHg 85%
    22:00 0°C° 0 mm 4 mps 749 mmHg 84%
    23:00 +1°C° 0 mm 3 mps 749 mmHg 84%

    16 November, Friday

    Time Temperature Precipitation Wind Pressure Humidity
    00:00 0°C° 0 mm 3 mps 749 mmHg 87%
    01:00 -1°C° 0 mm 3 mps 750 mmHg 89%
    02:00 -1°C° 0 mm 3 mps 750 mmHg 91%
    03:00 -2°C° 0 mm 3 mps 750 mmHg 91%
    04:00 -2°C° 0 mm 3 mps 750 mmHg 90%
    05:00 -2°C° 0 mm 3 mps 750 mmHg 90%
    06:00 -3°C° 0 mm 4 mps 751 mmHg 88%
    07:00 -3°C° 0 mm 4 mps 751 mmHg 86%
    08:00 -4°C° 0 mm 4 mps 751 mmHg 84%
    09:00 -3°C° 0 mm 4 mps 751 mmHg 76%
    10:00 -2°C° 0 mm 4 mps 752 mmHg 69%
    11:00 -1°C° 0 mm 4 mps 752 mmHg 62%
    12:00 0°C° 0 mm 4 mps 752 mmHg 60%
    13:00 0°C° 0 mm 4 mps 752 mmHg 58%
    14:00 0°C° 0 mm 5 mps 751 mmHg 56%
    15:00 -1°C° 0 mm 4 mps 751 mmHg 61%
    16:00 -2°C° 0 mm 4 mps 751 mmHg 66%
    17:00 -3°C° 0 mm 4 mps 752 mmHg 71%
    18:00 -3°C° 0 mm 4 mps 752 mmHg 73%
    19:00 -3°C° 0 mm 4 mps 752 mmHg 75%
    20:00 -4°C° 0 mm 4 mps 752 mmHg 76%
    21:00 -4°C° 0 mm 4 mps 752 mmHg 76%
    22:00 -4°C° 0 mm 4 mps 752 mmHg 75%
    23:00 -4°C° 0 mm 4 mps 752 mmHg 74%

    17 November, Saturday

    Time Temperature Precipitation Wind Pressure Humidity
    00:00 -5°C° 0 mm 4 mps 752 mmHg 73%
    01:00 -5°C° 0 mm 4 mps 752 mmHg 72%
    02:00 -5°C° 0 mm 4 mps 752 mmHg 71%
    03:00 -5°C° 0 mm 4 mps 752 mmHg 69%
    04:00 -5°C° 0 mm 4 mps 752 mmHg 68%
    05:00 -5°C° 0 mm 4 mps 752 mmHg 66%
    06:00 -5°C° 0 mm 4 mps 752 mmHg 64%
    07:00 -5°C° 0 mm 4 mps 752 mmHg 63%
    08:00 -5°C° 0 mm 4 mps 753 mmHg 61%
    09:00 -4°C° 0 mm 4 mps 753 mmHg 56%
    10:00 -3°C° 0 mm 4 mps 753 mmHg 51%
    11:00 -2°C° 0 mm 4 mps 753 mmHg 46%
    12:00 -1°C° 0 mm 4 mps 753 mmHg 45%
    13:00 0°C° 0 mm 4 mps 753 mmHg 44%
    14:00 0°C° 0 mm 4 mps 752 mmHg 43%
    15:00 0°C° 0 mm 3 mps 752 mmHg 48%
    16:00 -1°C° 0 mm 3 mps 752 mmHg 53%
    17:00 -2°C° 0 mm 3 mps 752 mmHg 58%
    18:00 -4°C° 0 mm 3 mps 752 mmHg 59%
    19:00 -4°C° 0 mm 3 mps 752 mmHg 60%
    20:00 -5°C° 0 mm 3 mps 752 mmHg 60%
    21:00 -4°C° 0 mm 2 mps 752 mmHg 60%
    22:00 -4°C° 0 mm 2 mps 752 mmHg 59%
    23:00 -4°C° 0 mm 2 mps 752 mmHg 58%

    18 November, Sunday

    Time Temperature Precipitation Wind Pressure Humidity
    00:00 -4°C° 0 mm 2 mps 751 mmHg 56%
    01:00 -4°C° 0 mm 2 mps 751 mmHg 54%
    02:00 -4°C° 0 mm 2 mps 751 mmHg 53%
    03:00 -4°C° 0 mm 2 mps 750 mmHg 52%
    04:00 -4°C° 0 mm 2 mps 750 mmHg 51%
    05:00 -4°C° 0 mm 2 mps 749 mmHg 50%
    06:00 -4°C° 0 mm 2 mps 749 mmHg 49%
    07:00 -5°C° 0 mm 3 mps 748 mmHg 49%
    08:00 -5°C° 0 mm 3 mps 748 mmHg 48%
    09:00 -2°C° 0 mm 3 mps 747 mmHg 44%
    10:00 -2°C° 0 mm 4 mps 747 mmHg 40%
    11:00 0°C° 0 mm 4 mps 746 mmHg 36%
    12:00 0°C° 0 mm 4 mps 745 mmHg 37%
    13:00 +1°C° 0 mm 5 mps 744 mmHg 38%
    14:00 +1°C° 0 mm 5 mps 743 mmHg 39%
    15:00 0°C° 0.1 mm 5 mps 743 mmHg 47%
    16:00 0°C° 0.1 mm 5 mps 742 mmHg 54%
    17:00 -1°C° 0.1 mm 4 mps 741 mmHg 61%
    18:00 -1°C° 0.2 mm 4 mps 740 mmHg 67%
    19:00 -1°C° 0.2 mm 4 mps 740 mmHg 73%
    20:00 -2°C° 0.2 mm 4 mps 739 mmHg 79%
    21:00 -1°C° 0.2 mm 4 mps 739 mmHg 83%
    22:00 -1°C° 0.2 mm 4 mps 738 mmHg 87%
    23:00 -1°C° 0.2 mm 4 mps 738 mmHg 91%
    Show more